DW1347 Weather Reports


time (UTC)temp
F
wind
direction
speed
knots
gust
knots
rain 1hr
in
rain 24hr
in
rain mn
in
humidity
%
barometer
mb
20260905201944 79 160 2.6 2.6 0.00 0.00 0.00 34 1030.5
20260905201439 80 13 1.7 1.7 0.00 0.00 0.00 34 1030.5
20260905200938 81 259 2.6 6.1 0.00 0.00 0.00 33 1030.4
20260905200435 80 32 0.9 0.9 0.00 0.00 0.00 34 1030.5
20260905195933 78 3 3.5 4.3 0.00 0.00 0.00 35 1030.4
20260905195428 79 242 3.5 5.2 0.00 0.00 0.00 35 1030.7
20260905194924 79 176 3.5 6.1 0.00 0.00 0.00 36 1030.7
20260905194423 79 86 2.6 7.0 0.00 0.00 0.00 36 1030.8
20260905193923 80 36 5.2 5.2 0.00 0.00 0.00 35 1030.8
20260905193418 78 207 3.5 5.2 0.00 0.00 0.00 36 1030.5
20260905192913 79 153 3.5 5.2 0.00 0.00 0.00 36 1030.7
20260905192409 79 356 3.5 5.2 0.00 0.00 0.00 36 1030.7
20260905191908 79 34 7.0 7.8 0.00 0.00 0.00 35 1030.7
20260905191407 80 28 2.6 5.2 0.00 0.00 0.00 34 1030.8
20260905190902 80 292 2.6 4.3 0.00 0.00 0.00 35 1031.0
20260905190354 80 77 1.7 2.6 0.00 0.00 0.00 35 1030.7
20260905185853 79 120 4.3 5.2 0.00 0.00 0.00 35 1030.8
20260905185349 77 114 4.3 6.1 0.00 0.00 0.00 36 1030.9
20260905184848 77 157 2.6 2.6 0.00 0.00 0.00 37 1030.8
20260905184347 78 172 2.6 5.2 0.00 0.00 0.00 36 1031.0
20260905183845 79 171 2.6 2.6 0.00 0.00 0.00 35 1030.9
20260905183341 79 83 2.6 4.3 0.00 0.00 0.00 34 1030.8
20260905182836 78 306 4.3 8.7 0.00 0.00 0.00 35 1030.7
20260905182335 78 223 1.7 2.6 0.00 0.00 0.00 36 1030.9
20260905181831 77 295 5.2 7.0 0.00 0.00 0.00 35 1030.8
20260905181330 77 31 3.5 4.3 0.00 0.00 0.00 35 1030.8
20260905180829 77 39 1.7 1.7 0.00 0.00 0.00 35 1030.8
20260905180325 77 128 3.5 5.2 0.00 0.00 0.00 35 1031.0
20260905175819 78 5 2.6 5.2 0.00 0.00 0.00 35 1031.0
20260905175314 78 223 1.7 1.7 0.00 0.00 0.00 35 1031.0
20260905174809 78 133 2.6 4.3 0.00 0.00 0.00 35 1030.9
20260905174305 80 121 1.7 4.3 0.00 0.00 0.00 34 1031.3
20260905173801 82 148 2.6 2.6 0.00 0.00 0.00 33 1030.9
20260905173257 82 237 0.9 0.9 0.00 0.00 0.00 34 1031.0
20260905172756 82 143 4.3 5.2 0.00 0.00 0.00 33 1030.8
20260905172254 81 66 3.5 5.2 0.00 0.00 0.00 34 1030.9
20260905171751 81 114 1.7 1.7 0.00 0.00 0.00 33 1030.7
20260905171248 81 184 1.7 1.7 0.00 0.00 0.00 33 1031.0
20260905170743 79 144 0.9 1.7 0.00 0.00 0.00 35 1031.0
20260905170239 78 67 5.2 6.1 0.00 0.00 0.00 35 1030.9
20260905165738 76 322 0.0 0.9 0.00 0.00 0.00 36 1031.0
20260905165234 77 58 0.9 0.9 0.00 0.00 0.00 38 1031.0
20260905164733 77 97 1.7 1.7 0.00 0.00 0.00 36 1031.0
20260905164228 77 198 0.0 0.0 0.00 0.00 0.00 37 1030.9
20260905163725 76 224 2.6 4.3 0.00 0.00 0.00 37 1030.9
20260905163220 77 267 2.6 2.6 0.00 0.00 0.00 36 1030.9
20260905162717 76 89 0.9 0.9 0.00 0.00 0.00 36 1031.0
20260905162216 76 118 1.7 2.6 0.00 0.00 0.00 36 1030.8
20260905161711 75 272 1.7 1.7 0.00 0.00 0.00 37 1030.9
20260905161209 76 54 0.9 1.7 0.00 0.00 0.00 36 1030.9
20260905160708 75 276 2.6 2.6 0.00 0.00 0.00 37 1030.9
20260905160202 75 147 4.3 5.2 0.00 0.00 0.00 37 1030.8
20260905155701 74 89 1.7 1.7 0.00 0.00 0.00 38 1031.0
20260905155201 74 25 3.5 4.3 0.00 0.00 0.00 39 1031.0
20260905154650 74 17 3.5 4.3 0.00 0.00 0.00 38 1031.0
20260905154145 74 343 1.7 1.7 0.00 0.00 0.00 39 1031.2
20260905153641 73 1 5.2 6.1 0.00 0.00 0.00 39 1030.8
20260905153136 73 204 2.6 2.6 0.00 0.00 0.00 40 1030.8
20260905152631 73 348 0.9 1.7 0.00 0.00 0.00 41 1031.0
20260905152125 72 49 2.6 4.3 0.00 0.00 0.00 41 1030.8
20260905151620 71 24 1.7 1.7 0.00 0.00 0.00 42 1030.9
20260905151116 70 341 0.9 0.9 0.00 0.00 0.00 44 1030.9
20260905150606 69 56 2.6 2.6 0.00 0.00 0.00 46 1030.7
20260905145556 68 116 2.6 2.6 0.00 0.00 0.00 48 1030.9
20260905145055 67 23 0.9 0.9 0.00 0.00 0.00 51 1030.9
20260905144551 66 220 0.0 0.0 0.00 0.00 0.00 53 1030.8
20260905144049 64 218 0.0 0.0 0.00 0.00 0.00 54 1031.2
20260905143543 64 211 0.0 0.0 0.00 0.00 0.00 56 1031.0
20260905143038 62 189 0.9 0.9 0.00 0.00 0.00 58 1031.0
20260905142537 60 206 0.0 0.0 0.00 0.00 0.00 60 1031.4
20260905142032 59 223 0.0 0.0 0.00 0.00 0.00 61 1031.0
20260905141527 58 219 0.0 0.0 0.00 0.00 0.00 62 1031.0
20260905141024 57 214 0.0 0.0 0.00 0.00 0.00 64 1030.9
20260905140524 56 213 0.0 0.0 0.00 0.00 0.00 66 1031.3
20260905140023 56 197 0.9 0.9 0.00 0.00 0.00 65 1031.2
20260905135518 55 178 0.9 1.7 0.00 0.00 0.00 67 1031.0
20260905135013 56 215 0.0 0.0 0.00 0.00 0.00 65 1030.9
20260905134508 55 213 0.0 0.0 0.00 0.00 0.00 65 1030.8
20260905134007 55 195 0.0 0.9 0.00 0.00 0.00 66 1030.8
20260905133502 53 208 0.0 0.0 0.00 0.00 0.00 68 1030.7
20260905133001 53 226 0.0 0.0 0.00 0.00 0.00 68 1030.8
20260905132457 52 185 1.7 1.7 0.00 0.00 0.00 70 1030.7
20260905131951 51 219 0.0 0.0 0.00 0.00 0.00 71 1030.7
20260905131447 52 196 0.9 0.9 0.00 0.00 0.00 70 1030.9
20260905130942 51 201 0.0 0.0 0.00 0.00 0.00 71 1030.4
20260905130441 51 214 0.0 0.0 0.00 0.00 0.00 72 1030.8
20260905125941 51 208 0.0 0.0 0.00 0.00 0.00 71 1030.7
20260905125436 51 181 0.0 0.9 0.00 0.00 0.00 71 1030.7
20260905124932 51 228 0.9 0.9 0.00 0.00 0.00 72 1030.7
20260905124428 51 215 0.0 0.0 0.00 0.00 0.00 71 1030.4
20260905123928 51 217 0.0 0.0 0.00 0.00 0.00 71 1030.5
20260905123425 51 221 0.0 0.0 0.00 0.00 0.00 71 1030.4
20260905122920 51 193 0.0 0.9 0.00 0.00 0.00 71 1030.4
20260905122419 51 199 0.0 0.0 0.00 0.00 0.00 71 1030.5
20260905121915 52 220 0.0 0.0 0.00 0.00 0.00 69 1030.2
20260905121410 51 217 0.0 0.0 0.00 0.00 0.00 71 1030.0
20260905120909 51 170 0.9 1.7 0.00 0.00 0.00 71 1030.4
20260905120404 51 214 0.0 0.0 0.00 0.00 0.00 72 1030.2
20260905115859 51 213 0.0 0.0 0.00 0.00 0.00 73 1030.3
20260905115358 51 215 0.0 0.0 0.00 0.00 0.00 73 1030.3
20260905114853 50 213 0.0 0.0 0.00 0.00 0.00 74 1030.4
20260905114352 50 180 0.9 0.9 0.00 0.00 0.00 73 1030.2
20260905113851 51 218 0.0 0.0 0.00 0.00 0.00 73 1030.4
20260905113348 50 220 0.0 0.0 0.00 0.00 0.00 74 1030.3
20260905112842 50 212 0.0 0.0 0.00 0.00 0.00 74 1030.3
20260905112337 51 215 0.0 0.0 0.00 0.00 0.00 74 1030.3
20260905111833 51 205 0.0 0.0 0.00 0.00 0.00 72 1030.2
20260905111332 51 206 0.9 0.9 0.00 0.00 0.00 73 1030.2
20260905110827 51 187 0.9 0.9 0.00 0.00 0.00 73 1029.9
20260905110325 51 190 0.9 0.9 0.00 0.00 0.00 74 1030.3
20260905105821 51 183 0.9 0.9 0.00 0.00 0.00 73 1029.9
20260905105320 51 184 0.9 0.9 0.00 0.00 0.00 74 1030.3
20260905104814 51 216 0.0 0.0 0.00 0.00 0.00 74 1030.0
20260905104311 51 180 0.9 0.9 0.00 0.00 0.00 73 1030.0
20260905103810 51 211 0.0 0.0 0.00 0.00 0.00 73 1030.2
20260905103307 51 215 0.0 0.0 0.00 0.00 0.00 73 1030.0
20260905102802 52 220 0.0 0.0 0.00 0.00 0.00 71 1029.8
20260905102258 51 194 0.9 0.9 0.00 0.00 0.00 72 1029.8
20260905101753 52 217 0.0 0.0 0.00 0.00 0.00 72 1029.8
20260905101251 52 217 0.0 0.0 0.00 0.00 0.00 70 1029.8
20260905100746 52 219 0.0 0.0 0.00 0.00 0.00 70 1029.8
20260905100242 52 178 0.0 0.0 0.00 0.00 0.00 71 1029.9
20260905095741 52 222 0.0 0.0 0.00 0.00 0.00 71 1029.8
20260905095240 52 159 1.7 1.7 0.00 0.00 0.00 71 1030.0
20260905094735 52 229 2.6 2.6 0.00 0.00 0.00 70 1029.9
20260905094230 52 189 0.0 0.9 0.00 0.00 0.00 71 1029.8
20260905093725 52 154 1.7 1.7 0.00 0.00 0.00 70 1029.9
20260905093221 52 213 0.0 0.0 0.00 0.00 0.00 71 1029.7
20260905092716 52 194 0.9 0.9 0.00 0.00 0.00 70 1029.9
20260905092211 52 211 0.0 0.0 0.00 0.00 0.00 71 1029.8
20260905091711 53 220 0.0 0.0 0.00 0.00 0.00 69 1029.7
20260905091206 53 174 0.9 0.9 0.00 0.00 0.00 69 1029.8
20260905090705 53 203 0.0 0.0 0.00 0.00 0.00 69 1029.5
20260905090201 53 191 0.9 0.9 0.00 0.00 0.00 68 1029.7
20260905085659 53 210 0.0 0.0 0.00 0.00 0.00 69 1029.8
20260905085155 53 204 0.0 0.0 0.00 0.00 0.00 68 1029.9
20260905084654 53 196 0.0 0.0 0.00 0.00 0.00 68 1029.7
20260905084149 53 211 0.0 0.0 0.00 0.00 0.00 68 1029.8
20260905083644 53 187 0.9 0.9 0.00 0.00 0.00 67 1029.8
20260905083140 53 210 0.0 0.9 0.00 0.00 0.00 69 1029.8
20260905082636 54 229 0.0 0.0 0.00 0.00 0.00 68 1029.8
20260905082131 54 190 0.9 0.9 0.00 0.00 0.00 65 1029.8
20260905081631 54 195 0.9 0.9 0.00 0.00 0.00 66 1029.5
20260905081126 54 211 0.0 0.0 0.00 0.00 0.00 66 1030.0
20260905080620 54 196 0.9 0.9 0.00 0.00 0.00 64 1029.7
20260905080115 54 219 0.0 0.0 0.00 0.00 0.00 65 1029.7
20260905075614 55 186 0.9 0.9 0.00 0.00 0.00 64 1029.9
20260905075108 56 221 0.0 0.0 0.00 0.00 0.00 63 1029.9
20260905074607 56 187 0.9 0.9 0.00 0.00 0.00 62 1029.8
20260905074103 55 179 0.9 0.9 0.00 0.00 0.00 63 1029.5
20260905073558 55 183 0.9 0.9 0.00 0.00 0.00 63 1029.9
20260905073054 55 193 0.9 0.9 0.00 0.00 0.00 64 1029.9
20260905072553 55 218 0.0 0.0 0.00 0.00 0.00 64 1029.7
20260905072048 55 211 0.0 0.0 0.00 0.00 0.00 64 1029.8
20260905071545 55 208 0.0 0.0 0.00 0.00 0.00 64 1029.8
20260905071040 55 199 0.0 0.0 0.00 0.00 0.00 64 1029.8
20260905070536 55 217 0.0 0.0 0.00 0.00 0.00 63 1029.8
20260905070031 55 205 0.0 0.0 0.00 0.00 0.00 63 1029.8
20260905065528 55 187 0.9 0.9 0.00 0.00 0.00 64 1029.9
20260905065025 55 196 0.0 0.0 0.00 0.00 0.00 64 1029.7
20260905064525 55 169 1.7 1.7 0.00 0.00 0.00 64 1029.9
20260905064020 55 208 0.0 0.0 0.00 0.00 0.00 64 1029.8
20260905063519 57 233 1.7 1.7 0.00 0.00 0.00 61 1029.8
20260905063016 56 177 1.7 1.7 0.00 0.00 0.00 61 1029.7
20260905062515 55 201 0.9 0.9 0.00 0.00 0.00 63 1029.9
20260905062010 55 212 0.0 0.0 0.00 0.00 0.00 63 1029.8
20260905061505 56 210 0.0 0.0 0.00 0.00 0.00 61 1029.8
20260905061004 56 216 0.0 0.0 0.00 0.00 0.00 61 1029.7
20260905060500 57 194 0.9 0.9 0.00 0.00 0.00 61 1029.7
20260905055954 57 199 0.0 0.0 0.00 0.00 0.00 61 1029.7
20260905055454 57 210 0.0 0.0 0.00 0.00 0.00 59 1029.3
20260905054949 57 212 0.0 0.0 0.00 0.00 0.00 60 1029.7
20260905054444 57 213 0.0 0.0 0.00 0.00 0.00 61 1029.9
20260905053945 57 211 0.0 0.0 0.00 0.00 0.00 61 1029.7
20260905053439 57 216 0.0 0.0 0.00 0.00 0.00 60 1029.5
20260905052935 58 218 0.0 0.0 0.00 0.00 0.00 60 1029.7
20260905052434 58 190 0.9 0.9 0.00 0.00 0.00 59 1029.5
20260905051934 58 210 0.0 0.0 0.00 0.00 0.00 59 1029.7
20260905051430 58 194 0.9 1.7 0.00 0.00 0.00 59 1029.5
20260905050927 58 229 0.0 0.0 0.00 0.00 0.00 60 1029.8
20260905050423 58 159 1.7 1.7 0.00 0.00 0.00 60 1029.7
20260905045919 59 246 0.0 0.0 0.00 0.00 0.00 60 1029.7
20260905045414 59 209 0.0 0.0 0.00 0.00 0.00 59 1029.4
20260905044909 59 195 0.9 0.9 0.00 0.00 0.00 59 1029.7
20260905044404 60 218 0.0 0.0 0.00 0.00 0.00 59 1029.8
20260905043903 60 204 0.0 0.0 0.00 0.00 0.00 58 1029.5
20260905043357 60 205 0.0 0.0 0.00 0.00 0.00 58 1029.8
20260905042852 60 203 0.0 0.9 0.00 0.00 0.00 58 1029.5
20260905042346 61 220 0.0 0.0 0.00 0.00 0.00 58 1029.5
20260905041841 61 197 0.9 0.9 0.00 0.00 0.00 57 1029.5
20260905041338 62 192 0.9 0.9 0.00 0.00 0.00 56 1029.7
20260905040838 62 183 0.9 0.9 0.00 0.00 0.00 56 1029.5
20260905040336 63 211 0.0 0.0 0.00 0.00 0.00 54 1029.8
20260905035836 64 201 0.0 0.0 0.00 0.00 0.00 54 1029.7
20260905035332 64 218 0.0 0.0 0.00 0.00 0.00 54 1029.7
20260905034828 64 177 0.9 1.7 0.00 0.00 0.00 53 1029.5
20260905034324 65 228 0.0 0.0 0.00 0.00 0.00 53 1029.4
20260905033822 65 188 0.0 0.0 0.00 0.00 0.00 52 1029.4
20260905033318 67 221 0.0 0.0 0.00 0.00 0.00 50 1029.7
20260905032817 68 223 0.0 0.0 0.00 0.00 0.00 49 1029.5
20260905032313 67 224 0.9 0.9 0.00 0.00 0.00 51 1029.5
20260905031807 67 221 0.9 0.9 0.00 0.00 0.00 50 1029.5
20260905031303 68 244 0.9 0.9 0.00 0.00 0.00 49 1029.3
20260905030758 68 236 0.0 0.0 0.00 0.00 0.00 48 1029.4
20260905030254 68 227 0.9 0.9 0.00 0.00 0.00 48 1029.3
20260905025748 69 222 0.9 0.9 0.00 0.00 0.00 48 1029.3
20260905025244 68 175 2.6 2.6 0.00 0.00 0.00 47 1029.1
20260905024739 67 227 0.9 1.7 0.00 0.00 0.00 48 1029.1
20260905024235 65 243 0.0 0.0 0.00 0.00 0.00 49 1029.4
20260905023735 65 200 0.9 0.9 0.00 0.00 0.00 49 1029.1
20260905023230 65 211 0.0 0.0 0.00 0.00 0.00 50 1028.9
20260905022729 65 207 0.0 0.9 0.00 0.00 0.00 50 1029.0
20260905022225 66 216 0.0 0.0 0.00 0.00 0.00 50 1029.0
20260905021725 66 214 0.0 0.0 0.00 0.00 0.00 50 1029.0
20260905021220 66 181 1.7 1.7 0.00 0.00 0.00 50 1028.6
20260905020715 66 190 0.9 0.9 0.00 0.00 0.00 50 1028.8
20260905020210 66 218 0.0 0.0 0.00 0.00 0.00 50 1028.8
20260905015709 66 214 0.0 0.0 0.00 0.00 0.00 49 1028.8
20260905015209 67 215 0.0 0.0 0.00 0.00 0.00 49 1028.8
20260905014707 68 237 0.0 0.9 0.00 0.00 0.00 47 1028.3
20260905014203 68 193 0.9 0.9 0.00 0.00 0.00 46 1028.5
20260905013659 69 218 0.0 0.0 0.00 0.00 0.00 46 1028.3
20260905013154 69 218 0.0 0.0 0.00 0.00 0.00 46 1028.6
20260905012650 69 219 0.0 0.0 0.00 0.00 0.00 44 1028.1
20260905012146 70 217 0.0 0.0 0.00 0.00 0.00 44 1028.3
20260905011642 71 226 0.9 0.9 0.00 0.00 0.00 44 1028.3
20260905011137 71 217 0.0 0.0 0.00 0.00 0.00 42 1028.5
20260905010632 73 217 0.0 0.0 0.00 0.00 0.00 40 1028.4
20260905010128 74 218 0.0 0.0 0.00 0.00 0.00 39 1028.5
20260905005624 75 217 0.9 0.9 0.00 0.00 0.00 38 1028.1
20260905005120 75 211 0.0 0.0 0.00 0.00 0.00 37 1028.4
20260905004619 75 197 0.9 0.9 0.00 0.00 0.00 37 1028.1
20260905004115 76 216 0.0 0.0 0.00 0.00 0.00 37 1028.3
20260905003610 76 21 1.7 1.7 0.00 0.00 0.00 36 1028.3
20260905003106 76 70 2.6 2.6 0.00 0.00 0.00 36 1028.4
20260905002601 77 85 0.9 1.7 0.00 0.00 0.00 35 1028.4
20260905002056 77 2 1.7 1.7 0.00 0.00 0.00 35 1028.3
20260905001551 77 46 2.6 2.6 0.00 0.00 0.00 35 1028.3
20260905001051 78 308 3.5 4.3 0.00 0.00 0.00 34 1028.0
20260905000546 78 15 5.2 6.1 0.00 0.00 0.00 34 1028.1
20260905000042 79 359 2.6 4.3 0.00 0.00 0.00 33 1028.5
20260904235536 79 219 1.7 1.7 0.00 0.00 0.00 33 1028.1
20260904235036 79 272 2.6 5.2 0.00 0.00 0.00 33 1028.3
20260904234536 78 32 3.5 5.2 0.00 0.00 0.00 34 1028.1
20260904234032 79 12 1.7 2.6 0.00 0.00 0.00 32 1028.0
20260904233527 80 176 1.7 1.7 0.00 0.00 0.00 31 1028.1
20260904233023 79 355 1.7 1.7 0.00 0.00 0.00 31 1028.1
20260904232520 80 222 2.6 2.6 0.00 0.00 0.00 31 1027.8
20260904232016 80 238 2.6 2.6 0.00 0.00 0.00 31 1028.0
20260904231512 78 241 0.0 0.9 0.00 0.00 0.00 31 1028.0
20260904231006 79 100 2.6 4.3 0.00 0.00 0.00 31 1028.0
20260904230500 79 7 6.1 7.8 0.00 0.00 0.00 31 1027.8
20260904225955 79 7 6.1 7.8 0.00 0.00 0.00 31 1027.8
20260904225453 78 357 2.6 4.3 0.00 0.00 0.00 31 1027.9
20260904224952 78 176 0.9 0.9 0.00 0.00 0.00 32 1027.9
20260904224448 79 241 2.6 4.3 0.00 0.00 0.00 31 1027.9
20260904223948 80 303 0.9 1.7 0.00 0.00 0.00 30 1027.9
20260904223447 80 3 5.2 7.0 0.00 0.00 0.00 30 1027.5
20260904222943 80 82 1.7 2.6 0.00 0.00 0.00 30 1027.8
20260904222439 80 146 1.7 1.7 0.00 0.00 0.00 30 1027.6
20260904221938 79 135 3.5 5.2 0.00 0.00 0.00 31 1027.8
20260904221432 79 301 1.7 1.7 0.00 0.00 0.00 31 1027.6
20260904220928 80 254 0.9 1.7 0.00 0.00 0.00 30 1027.6
20260904220428 79 7 0.9 1.7 0.00 0.00 0.00 31 1027.9
20260904215923 79 221 0.0 0.9 0.00 0.00 0.00 30 1027.8
20260904215418 79 70 1.7 2.6 0.00 0.00 0.00 30 1027.9
20260904214914 82 265 0.0 0.9 0.00 0.00 0.00 29 1028.1
20260904214410 82 133 4.3 6.1 0.00 0.00 0.00 29 1027.8
20260904213909 81 114 3.5 5.2 0.00 0.00 0.00 29 1027.9
20260904213403 81 126 5.2 6.1 0.00 0.00 0.00 28 1028.0
20260904212859 82 99 3.5 5.2 0.00 0.00 0.00 29 1028.0
20260904212358 81 214 2.6 2.6 0.00 0.00 0.00 29 1028.0
20260904211854 80 316 5.2 6.1 0.00 0.00 0.00 30 1028.0
20260904211349 78 181 0.0 0.9 0.00 0.00 0.00 31 1027.9
20260904210844 79 210 3.5 5.2 0.00 0.00 0.00 30 1028.1
20260904210344 80 195 4.3 5.2 0.00 0.00 0.00 29 1028.3
20260904205840 80 182 0.9 1.7 0.00 0.00 0.00 30 1028.1
20260904205335 80 211 2.6 4.3 0.00 0.00 0.00 29 1028.1
20260904204832 79 282 0.9 0.9 0.00 0.00 0.00 29 1028.1
20260904204327 78 251 2.6 2.6 0.00 0.00 0.00 31 1028.3
20260904203824 80 4 3.5 4.3 0.00 0.00 0.00 29 1028.4
20260904203320 80 117 1.7 2.6 0.00 0.00 0.00 29 1028.4
20260904202815 80 165 0.0 0.9 0.00 0.00 0.00 30 1028.3
20260904202311 81 11 5.2 8.7 0.00 0.00 0.00 29 1028.4